Location: Burbank
(38.7788°N, 114.0429°W)
Time: 00:43:48
(UTC+00:00)

Explorer 7 - Pass Details

Date: 15 May 2026
Orbit: 426 x 534 km, 50.2° (Epoch: 10 June)

Event Time Altitude Azimuth Distance (km) Brightness Sun altitude
Exits shadow 11:02:16 11° 173° (S) 1,475 8.7 -14.3°
Maximum altitude 11:04:27 18° 131° (SE) 1,159 8.6 -13.9°
Drops below altitude 10° 11:06:57 10° 87° (E) 1,586 10.0 -13.6°
Sets 11:09:36 0° 68° (ENE) 2,488 11.8 -13.2°
